This is the latest recevied weather packets stored in our database for station/object WX0ABE-13. If no packets are shown the sender has not sent any weather packets the latest 10 day(s).
| Time | Temp. | Humidity | Pressure | Rain* | Wind** | Luminosity | Snow |
|---|---|---|---|---|---|---|---|
| 1788140024 | 25° C | 44% | 1016.1 hPa | 0 mm | - | 0 W/m² | - |
| 1788139718 | 25° C | 43% | 1015.7 hPa | 0 mm | - | 0 W/m² | - |
| 1788139414 | 25° C | 44% | 1015.9 hPa | 0 mm | - | 1 W/m² | - |
| 1788139114 | 25° C | 44% | 1015.8 hPa | 0 mm | - | 2 W/m² | - |
| 1788138809 | 25° C | 43% | 1015.9 hPa | 0 mm | - | 4 W/m² | - |
| 1788138505 | 25° C | 43% | 1016.1 hPa | 0 mm | - | 6 W/m² | - |
| 1788138204 | 25.56° C | 42% | 1015.9 hPa | 0 mm | - | 10 W/m² | - |
| 1788137900 | 25.56° C | 42% | 1015.9 hPa | 0 mm | - | 12 W/m² | - |
| 1788137596 | 26.11° C | 39% | 1015.8 hPa | 0 mm | - | 14 W/m² | - |
| 1788137290 | 26.67° C | 38% | 1015.9 hPa | 0 mm | - | 15 W/m² | - |
| 1788136987 | 26.67° C | 36% | 1016.1 hPa | 0 mm | - | 10 W/m² | - |
| 1788136682 | 27.22° C | 36% | 1016.1 hPa | 0 mm | - | 10 W/m² | - |
| 1788136378 | 27.78° C | 35% | 1015.8 hPa | 0 mm | - | 14 W/m² | - |
| 1788136077 | 27.78° C | 33% | 1015.9 hPa | 0 mm | - | 15 W/m² | - |
| 1788135777 | 27.22° C | 33% | 1015.6 hPa | 0 mm | - | 13 W/m² | - |
| 1788135473 | 26.67° C | 37% | 1015.6 hPa | 0 mm | - | 13 W/m² | - |
| 1788135168 | 26.67° C | 38% | 1015.6 hPa | 0 mm | - | 21 W/m² | - |
| 1788134865 | 26.67° C | 37% | 1015.7 hPa | 0 mm | - | 33 W/m² | - |
| 1788134565 | 26.67° C | 37% | 1015.7 hPa | 0 mm | - | 47 W/m² | - |
| 1788134263 | 26.67° C | 37% | 1015.9 hPa | 0 mm | - | 53 W/m² | - |
| 1788133958 | 27.22° C | 37% | 1015.9 hPa | 0 mm | - | 67 W/m² | - |
| 1788133653 | 27.78° C | 36% | 1016.2 hPa | 0 mm | - | 90 W/m² | - |
| 1788133349 | 27.22° C | 36% | 1016.1 hPa | 0 mm | - | 84 W/m² | - |
| 1788133045 | 27.78° C | 35% | 1015.7 hPa | 0 mm | - | 67 W/m² | - |
| 1788132740 | 27.78° C | 35% | 1015.7 hPa | 0 mm | - | 90 W/m² | - |
* Rain latest hour (hover to see other rain measurements)
** Current wind speed in m/s (hover to see current wind gust speed)